Location: Newark
(47.5833°N, 8.1500°E)
Time: 20:52:46
(UTC+00:00)

Tiros 1 despin weight - Pass Details

Date: 29 October 2020
Orbit: 593 x 642 km, 48.2° (Epoch: 03 December)

Event Time Altitude Azimuth Distance (km) Brightness Sun altitude
Rises 05:29:21 0° 284° (WNW) 2,833 - -7.0°
Exits shadow 05:31:27 - 274° (W) 2,093 ? -6.6°
Reaches altitude 10° 05:31:57 10° 271° (W) 1,925 ? -6.6°
Maximum altitude 05:35:31 24° 216° (SW) 1,230 ? -6.0°
Drops below altitude 10° 05:39:04 10° 162° (SSE) 1,918 ? -5.4°
Sets 05:41:40 0° 149° (SSE) 2,820 ? -5.0°
